Reflectivity
-20 -20 -20 -20 -20 -20 -20 -20 -20 -20 -20 -20 -20 -20 -20 -20 -20 -20 -20 -20 -20 -20 -20 -20 -20 -20 -20 -20 -20 -20 -20 -20
-20 -20 -20 -20 -20 -20 -20 -20 -20 -20 -20 -20 -20 -20 -20 -20 -20 -20 -20 -20 -20 -20 -20 -20 -20 -20 -20 -20 -20 -20 -20 -20
-20 -20 -20 -20 -20 -20 -20 -20 -20 -20 -20 -20 -20 -20 -20 -20 -20 -20 -20 -20 -20 -20 -20 -20 -20 -20 -20 -20 -20 -20 -20 -20
-20 -20 -20 -20 -20 -20 -20 -20 -20 -20 -20 -20 -20 -20 -20 -20 -20 -20 -20 -20 -20 -20 -20 -20 -20 -20 -20 -20 -20 -20 -20 -20
-20 -20 -20 -20 -20 -20 -20 -20 -20 -20 -20 -20 -20 -20 -20 -20 -20 -20 -20 -20 -20 -20 -20 -20 -20 -20 -20 -20 -20 -20 -20 -20
-20 -20 -20 -20 -20 -20 -20 -20 -20 -20 -20 -20 -20 -20 -20 -20 -20 -20 -20 -20 -20 -20 -20 -20 -20 -20 -20 -20 -20 -20 -20 -20
-20 -20 -20 -20 -20 -20 -20 -20 -20 -20 -20 -20 -20 -20 -20 -20 -20 -20 -20 -20 -20 -20 -20 -20 -20 -20 -20 -20 -20 -20 -20 -20
-20 -20 -20 -20 -20 -20 -20 -20 -20 -20 -20 -20 -20 -20 -20 -20 -20 -20 -20 -20 -20 -20 -20 -20 -20 -20 -20 -20 -20 -20 -20 -20
-20 -20 -20 -20 -20 -20 -20 -20 -20 -20 -20 -20 -20 -20 -20 -20 -20 -20 -20 -20 -20 -20 -20 -20 -20 -20 -20 -20 -20 -20 -20 -8
-20 -20 -20 -20 -20 -20 -20 -20 -20 -20 -20 -20 -20 -20 -20 -20 -20 -20 -20 -20 -20 -20 -20 -20 -20 -20 -20 -20 -20 -20 -20 -20
-20 -20 -20 -20 -20 -20 -20 -20 -20 -20 -20 -20 -20 -20 -20 -20 -20 -20 -20 -20 -20 -20 -20 -20 -20 -20 -20 -20 -11 4 7 -14
-20 -20 -20 -20 -20 -20 -20 -20 -20 -20 -20 -20 -20 -20 -20 -20 -20 -20 -20 -20 -20 -20 -20 -20 -20 -12 -20 2 6 8 24 6
-20 -20 -20 -20 -20 -20 -20 -20 -20 -20 -20 -20 -20 -20 -20 -20 -20 -20 -20 -20 -20 -20 -20 -17 -4 9 11 -0 9 21 9 -2
-20 -20 -20 -20 -20 -20 -20 -20 -20 -20 -20 -20 -20 -20 -20 -20 -20 -20 -20 -20 -20 -20 -20 -18 5 8 -10 9 9 -8 -13 -20
-19 -20 -20 -20 -20 -20 -20 -20 -20 -20 -20 -20 -20 -20 -20 -20 -20 -20 -20 -20 -20 -20 -20 -19 2 6 3 -11 -14 -20 14 -20
-20 -20 -20 -20 -20 -20 -20 -20 -20 -20 -20 -20 -20 -20 -20 -20 -20 -20 -20 -20 -20 -20 -20 -20 6 3 3 -10 -20 -20 -20 -20
-20 -20 -20 -20 -20 -20 -20 -20 -20 -20 -20 -20 -20 -20 -20 -20 -20 -20 -20 -20 -20 -20 -20 -20 -15 5 -20 -20 -20 -20 -20 -20
-20 -20 -20 -20 -20 -20 -20 -20 -20 -20 -20 -20 -20 -20 -20 -20 -20 -20 -20 -20 -20 -20 -20 -20 -20 -8 0 -14 -20 -20 -20 -7
-20 -20 -20 -20 -20 -20 -20 -20 -20 -20 -20 -20 -20 -20 -20 -20 -20 -20 -20 -20 -20 -20 -20 -20 -20 -14 -17 2 -20 -20 -20 -20
-20 -20 -20 -20 -20 -20 -20 -20 -20 -20 -20 -20 -20 -20 -20 -20 -20 -17 -3 -20 -20 -16 -3 1 -20 -18 10 -17 -19 -20 -20 -20
Wind_Speed
19 18 16 12 13 14 14 15 15 14 14 13 13 12 11 11 10 9 9 9 9 8 8 7 5 4 3 1 3 10 11 0
17 17 17 16 14 10 13 13 13 13 13 12 12 12 11 10 10 9 9 10 9 9 8 8 6 4 2 2 5 10 11 1
16 17 18 17 16 13 11 10 11 11 11 10 11 11 12 13 12 14 10 10 9 9 8 8 7 5 5 5 6 8 8 4
17 16 17 16 14 15 14 13 12 12 13 13 11 11 11 12 12 11 10 9 9 9 9 8 8 8 7 7 7 9 4 4
19 16 16 16 13 12 9 9 9 10 14 13 12 9 9 9 8 8 8 9 8 9 8 8 11 9 8 8 10 3 6 4
20 20 16 15 11 12 12 11 11 10 12 14 10 7 9 9 8 10 10 9 10 10 8 10 10 8 6 6 6 6 5 4
21 20 18 15 12 11 11 11 11 12 12 13 11 11 9 9 9 10 10 10 10 9 9 9 8 9 8 8 8 7 7 5
20 21 18 18 15 12 10 10 12 11 11 13 15 11 9 10 9 10 10 10 10 9 9 8 8 8 9 9 8 8 8 7
20 19 19 18 17 13 11 11 11 11 11 13 16 13 11 11 11 10 10 9 10 9 9 8 8 8 9 9 8 9 6 2
23 19 20 18 16 14 12 12 11 11 12 11 15 16 14 12 11 10 10 9 9 9 9 9 9 9 7 6 7 2 4 5
23 20 20 19 17 14 14 13 12 12 12 12 15 15 16 12 11 10 10 10 9 10 10 9 7 5 4 4 6 6 7 7
21 18 19 18 14 12 12 12 12 12 12 12 14 13 16 14 12 11 11 10 10 10 10 10 8 8 7 7 6 7 6 5
21 20 18 14 14 13 13 12 12 12 12 15 15 14 17 15 12 12 11 12 11 11 10 11 8 4 5 7 7 8 7 7
20 19 18 16 13 13 12 12 12 12 11 13 15 16 16 16 15 13 14 11 13 12 12 9 7 8 7 7 6 8 9 8
16 18 18 17 18 13 12 12 11 12 13 12 15 17 17 18 17 14 14 12 11 12 11 13 9 7 11 6 5 7 6 5
16 16 19 18 19 16 17 14 14 13 12 12 13 18 18 18 18 18 14 13 13 13 12 11 11 11 6 9 4 3 5 5
13 16 18 18 18 18 14 16 12 11 11 15 15 15 18 18 18 17 16 12 14 13 14 14 12 10 10 9 9 5 2 4
15 18 18 17 15 17 19 18 16 12 13 11 11 11 13 17 18 17 16 15 15 14 14 16 13 12 9 9 9 6 8 6
10 11 15 16 16 16 18 19 16 17 14 11 12 11 11 16 18 18 16 17 16 15 15 15 15 12 13 9 9 7 3 4
12 15 16 16 14 15 14 17 12 13 14 12 11 12 12 14 17 17 19 19 17 15 13 13 14 12 12 7 5 5 4 5
Wind_Direction
156 167 160 151 151 150 150 153 155 154 153 154 153 148 150 155 160 157 148 143 144 147 146 147 151 155 160 181 303 303 296 259
163 169 171 172 168 148 152 156 157 155 156 154 149 149 155 159 157 157 154 154 156 159 159 160 164 167 189 257 289 285 279 321
167 171 173 175 172 165 155 155 154 151 153 152 151 179 176 165 194 149 165 165 164 164 167 171 173 182 201 217 247 243 233 247
171 175 176 175 173 165 179 176 182 184 183 175 188 187 184 176 162 153 168 171 170 170 173 180 199 195 190 213 238 251 251 258
177 177 177 181 179 166 182 179 184 190 190 181 202 190 181 186 158 172 183 186 187 185 184 204 206 238 182 201 214 203 247 223
179 180 179 186 183 174 187 186 188 188 191 185 202 199 179 191 182 184 195 180 202 192 195 216 216 226 254 222 243 238 232 248
182 182 181 185 203 182 193 194 188 194 187 189 207 203 187 193 193 190 195 184 203 190 211 206 209 219 225 231 226 238 274 270
181 185 185 186 199 185 194 192 185 198 194 194 205 202 189 199 204 202 199 201 203 203 208 199 214 217 214 230 234 227 214 231
180 189 184 191 196 196 193 196 213 195 206 193 189 210 198 209 206 207 208 205 207 207 203 213 209 215 229 208 230 231 250 309
180 190 187 191 192 195 197 206 197 203 206 195 199 206 220 198 206 207 209 208 202 206 208 208 223 228 226 220 206 182 234 236
181 186 193 192 195 198 200 200 205 210 200 206 191 203 209 210 218 206 202 207 206 211 210 219 211 234 251 219 232 239 231 233
186 183 193 189 195 200 200 205 202 210 208 205 199 201 205 207 212 214 194 211 210 212 217 212 224 204 238 230 211 233 228 216
186 181 187 190 198 196 206 202 205 207 211 206 202 197 208 204 214 204 199 209 213 201 212 228 200 207 198 241 235 228 231 236
188 187 183 195 196 204 206 208 206 207 207 209 204 203 202 206 207 207 200 208 212 208 205 210 199 215 206 227 218 215 211 219
221 205 199 194 209 202 208 215 216 202 206 204 202 204 203 206 204 213 196 203 206 207 203 211 196 210 222 228 209 236 159 146
217 226 215 207 200 221 212 211 213 214 208 205 203 201 205 205 207 205 207 191 209 198 200 204 192 200 196 235 240 315 207 159
203 213 223 224 205 207 215 222 221 218 208 211 204 198 204 206 205 204 210 201 201 204 197 198 198 206 188 202 209 212 222 247
210 200 217 218 219 208 213 218 221 221 226 205 211 205 195 205 205 205 205 206 198 202 195 195 206 207 190 189 197 180 194 194
237 244 226 221 210 220 215 220 224 220 224 209 199 207 202 201 203 202 204 203 201 193 197 195 200 198 202 200 205 209 173 172
257 237 236 237 225 208 224 218 218 224 221 225 206 208 206 197 202 206 206 202 200 198 194 193 193 203 204 190 171 154 150 164